GSAT0204 (PRN E22)

Last updated on Feb. 21, 2020, 4:44 a.m. UTC

1 40545U 15017B   20051.19715381 -.00000057  00000-0  00000-0 0  9998
2 40545  56.3528  44.7002 0003107 258.5447 101.4349  1.70475287 30503
UTC
Height (km)
Latitude
Longitude
Inclination
Orbital Period
UTC large
Height (km)
Speed (km/s)
/
Latitude / Longitude
Inclination (degrees)
Orbital Period (minutes)
Azimuth
Elevation
Range (km)
Doppler Factor
iOS Compass Heading
iOS Angle

Next 30 passes for location: Hong Kong

Rise time Rise Azimuth (degrees) Set time Set Azimuth (degrees) Duration Max altitude (degrees)

No matching passes for this satellites